Time,TemperatureF,DewpointF,PressureIn,WindDirection,WindDirectionDegrees,WindSpeedMPH,WindSpeedGustMPH,Humidity,HourlyPrecipIn,Conditions,Clouds,dailyrainin,SoftwareType,DateUTC
2013-05-26 00:02:00,52.0,52.0,30.05,East,80,9.0,-999.0,100,-99.99,,,-99.99,,2013-05-26 05:02:00,
2013-05-26 00:12:00,52.0,52.0,30.05,East,80,9.0,-999.0,100,-99.99,,,-99.99,,2013-05-26 05:12:00,
2013-05-26 00:22:00,52.0,52.0,30.05,East,80,9.0,-999.0,100,-99.99,,,-99.99,,2013-05-26 05:22:00,
2013-05-26 00:32:00,52.0,52.0,30.03,ENE,70,13.0,18.0,100,-99.99,,,-99.99,,2013-05-26 05:32:00,
2013-05-26 00:42:00,52.0,52.0,30.03,ENE,70,13.0,18.0,100,-99.99,,,-99.99,,2013-05-26 05:42:00,
2013-05-26 00:52:00,52.0,52.0,30.05,East,100,12.0,23.0,100,-99.99,,,-99.99,,2013-05-26 05:52:00,
2013-05-26 01:01:00,52.0,52.0,30.05,East,100,12.0,23.0,100,-99.99,,,-99.99,,2013-05-26 06:01:00,
2013-05-26 01:12:00,52.0,52.0,30.05,East,100,12.0,23.0,100,-99.99,,,-99.99,,2013-05-26 06:12:00,
2013-05-26 01:22:00,52.0,52.0,30.05,East,100,12.0,23.0,100,-99.99,,,-99.99,,2013-05-26 06:22:00,
2013-05-26 01:32:00,52.0,52.0,30.01,East,90,13.0,17.0,100,-99.99,,,-99.99,,2013-05-26 06:32:00,
2013-05-26 01:42:00,52.0,52.0,30.01,East,90,13.0,17.0,100,-99.99,,,-99.99,,2013-05-26 06:42:00,
2013-05-26 01:52:00,54.0,54.0,30.00,East,80,10.0,16.0,100,-99.99,,,-99.99,,2013-05-26 06:52:00,
2013-05-26 02:01:00,54.0,54.0,30.00,East,80,10.0,16.0,100,-99.99,,,-99.99,,2013-05-26 07:01:00,
2013-05-26 02:11:00,54.0,54.0,30.00,East,80,10.0,16.0,100,-99.99,,,-99.99,,2013-05-26 07:11:00,
2013-05-26 02:21:00,54.0,54.0,30.00,East,80,10.0,16.0,100,-99.99,,,-99.99,,2013-05-26 07:21:00,
2013-05-26 02:31:00,55.0,55.0,30.04,ESE,120,12.0,16.0,100,-99.99,,,-99.99,,2013-05-26 07:31:00,
2013-05-26 02:42:00,55.0,55.0,30.04,ESE,120,12.0,16.0,100,-99.99,,,-99.99,,2013-05-26 07:42:00,
2013-05-26 02:52:00,55.0,55.0,29.97,ESE,120,22.0,36.0,100,-99.99,,,-99.99,,2013-05-26 07:52:00,
2013-05-26 03:01:00,55.0,55.0,29.97,ESE,120,22.0,36.0,100,-99.99,,,-99.99,,2013-05-26 08:01:00,
2013-05-26 03:12:00,55.0,55.0,29.97,ESE,120,22.0,36.0,100,-99.99,,,-99.99,,2013-05-26 08:12:00,
2013-05-26 03:21:00,55.0,55.0,29.97,ESE,120,22.0,36.0,100,-99.99,,,-99.99,,2013-05-26 08:21:00,
2013-05-26 03:32:00,55.0,55.0,30.01,East,100,5.0,-999.0,100,-99.99,,,-99.99,,2013-05-26 08:32:00,
2013-05-26 03:42:00,55.0,55.0,30.01,East,100,5.0,-999.0,100,-99.99,,,-99.99,,2013-05-26 08:42:00,
2013-05-26 03:53:00,55.0,55.0,29.98,East,100,6.0,-999.0,100,-99.99,,,-99.99,,2013-05-26 08:53:00,
2013-05-26 04:01:00,55.0,55.0,29.98,East,100,6.0,-999.0,100,-99.99,,,-99.99,,2013-05-26 09:01:00,
2013-05-26 04:11:00,55.0,55.0,29.98,ESE,110,12.0,16.0,100,-99.99,,,-99.99,,2013-05-26 09:11:00,
2013-05-26 04:21:00,55.0,55.0,29.98,ESE,110,12.0,16.0,100,-99.99,,,-99.99,,2013-05-26 09:21:00,
2013-05-26 04:33:00,55.0,55.0,29.96,ESE,120,13.0,21.0,100,-99.99,,,-99.99,,2013-05-26 09:33:00,
2013-05-26 04:42:00,55.0,55.0,29.96,ESE,120,13.0,21.0,100,-99.99,,,-99.99,,2013-05-26 09:42:00,
2013-05-26 04:52:00,55.0,55.0,30.03,WNW,300,9.0,-999.0,100,-99.99,,,-99.99,,2013-05-26 09:52:00,
2013-05-26 05:02:00,55.0,55.0,30.03,WNW,300,9.0,-999.0,100,-99.99,,,-99.99,,2013-05-26 10:02:00,
2013-05-26 05:12:00,55.0,55.0,30.00,East,100,13.0,18.0,100,-99.99,,,-99.99,,2013-05-26 10:12:00,
2013-05-26 05:23:00,55.0,55.0,30.00,East,100,13.0,18.0,100,-99.99,,,-99.99,,2013-05-26 10:23:00,
2013-05-26 05:32:00,55.0,55.0,30.05,NNE,30,8.0,-999.0,100,-99.99,,,-99.99,,2013-05-26 10:32:00,
2013-05-26 05:42:00,55.0,55.0,30.05,NNE,30,8.0,-999.0,100,-99.99,,,-99.99,,2013-05-26 10:42:00,
2013-05-26 05:52:00,52.0,52.0,30.04,East,80,10.0,16.0,100,-99.99,,,-99.99,,2013-05-26 10:52:00,
2013-05-26 06:03:00,52.0,52.0,30.04,East,80,10.0,16.0,100,-99.99,,,-99.99,,2013-05-26 11:03:00,
2013-05-26 06:11:00,52.0,52.0,30.05,East,90,10.0,15.0,100,-99.99,,,-99.99,,2013-05-26 11:11:00,
2013-05-26 06:22:00,52.0,52.0,30.05,East,90,10.0,15.0,100,-99.99,,,-99.99,,2013-05-26 11:22:00,
2013-05-26 06:32:00,52.0,52.0,30.04,ENE,70,8.0,-999.0,100,-99.99,,,-99.99,,2013-05-26 11:32:00,
2013-05-26 06:42:00,52.0,52.0,30.04,ENE,70,8.0,-999.0,100,-99.99,,,-99.99,,2013-05-26 11:42:00,
2013-05-26 06:52:00,52.0,52.0,30.04,East,80,9.0,-999.0,100,-99.99,,,-99.99,,2013-05-26 11:52:00,
2013-05-26 07:02:00,52.0,52.0,30.04,East,80,9.0,-999.0,100,-99.99,,,-99.99,,2013-05-26 12:02:00,
2013-05-26 07:12:00,52.0,52.0,30.04,ENE,70,9.0,-999.0,100,-99.99,,,-99.99,,2013-05-26 12:12:00,
2013-05-26 07:21:00,52.0,52.0,30.04,ENE,70,9.0,-999.0,100,-99.99,,,-99.99,,2013-05-26 12:21:00,
2013-05-26 07:32:00,52.0,52.0,30.01,East,80,12.0,-999.0,100,-99.99,,,-99.99,,2013-05-26 12:32:00,
2013-05-26 07:42:00,52.0,52.0,30.01,East,80,12.0,-999.0,100,-99.99,,,-99.99,,2013-05-26 12:42:00,
2013-05-26 07:52:00,52.0,52.0,30.01,ESE,110,9.0,-999.0,100,-99.99,,,-99.99,,2013-05-26 12:52:00,
2013-05-26 08:02:00,52.0,52.0,30.01,ESE,110,9.0,-999.0,100,-99.99,,,-99.99,,2013-05-26 13:02:00,
2013-05-26 08:11:00,52.0,52.0,29.99,East,100,13.0,20.0,100,-99.99,,,-99.99,,2013-05-26 13:11:00,
2013-05-26 08:21:00,52.0,52.0,29.99,East,100,13.0,20.0,100,-99.99,,,-99.99,,2013-05-26 13:21:00,
2013-05-26 08:32:00,52.0,52.0,30.01,ESE,110,9.0,-999.0,100,-99.99,,,-99.99,,2013-05-26 13:32:00,
2013-05-26 08:42:00,52.0,52.0,30.01,ESE,110,9.0,-999.0,100,-99.99,,,-99.99,,2013-05-26 13:42:00,
2013-05-26 08:52:00,52.0,52.0,30.00,East,100,9.0,-999.0,100,-99.99,,,-99.99,,2013-05-26 13:52:00,
2013-05-26 09:02:00,52.0,52.0,30.00,East,100,9.0,-999.0,100,-99.99,,,-99.99,,2013-05-26 14:02:00,
2013-05-26 09:11:00,54.0,54.0,30.01,East,100,9.0,-999.0,100,-99.99,,,-99.99,,2013-05-26 14:11:00,
2013-05-26 09:21:00,54.0,54.0,30.01,East,100,9.0,-999.0,100,-99.99,,,-99.99,,2013-05-26 14:21:00,
2013-05-26 09:32:00,54.0,54.0,30.06,North,350,9.0,-999.0,100,-99.99,,,-99.99,,2013-05-26 14:32:00,
2013-05-26 09:42:00,54.0,54.0,30.06,North,350,9.0,-999.0,100,-99.99,,,-99.99,,2013-05-26 14:42:00,
2013-05-26 09:52:00,54.0,54.0,30.06,North,350,9.0,-999.0,100,-99.99,,,-99.99,,2013-05-26 14:52:00,
2013-05-26 10:01:00,54.0,54.0,30.06,North,350,9.0,-999.0,100,-99.99,,,-99.99,,2013-05-26 15:01:00,
2013-05-26 10:12:00,54.0,54.0,30.03,NE,40,12.0,18.0,100,-99.99,,,-99.99,,2013-05-26 15:12:00,
2013-05-26 10:22:00,54.0,54.0,30.03,NE,40,12.0,18.0,100,-99.99,,,-99.99,,2013-05-26 15:22:00,
2013-05-26 10:33:00,54.0,54.0,30.01,ENE,70,14.0,-999.0,100,-99.99,,,-99.99,,2013-05-26 15:33:00,
2013-05-26 10:43:00,54.0,54.0,30.01,ENE,70,14.0,-999.0,100,-99.99,,,-99.99,,2013-05-26 15:43:00,
2013-05-26 10:53:00,54.0,54.0,30.04,NE,50,12.0,16.0,100,-99.99,,,-99.99,,2013-05-26 15:53:00,
2013-05-26 11:03:00,54.0,54.0,30.04,NE,50,12.0,16.0,100,-99.99,,,-99.99,,2013-05-26 16:03:00,
2013-05-26 11:12:00,54.0,54.0,30.04,NE,50,12.0,16.0,100,-99.99,,,-99.99,,2013-05-26 16:12:00,
2013-05-26 11:23:00,54.0,54.0,30.04,NE,50,12.0,16.0,100,-99.99,,,-99.99,,2013-05-26 16:23:00,
2013-05-26 11:33:00,54.0,54.0,30.07,North,10,8.0,-999.0,100,-99.99,,,-99.99,,2013-05-26 16:33:00,
2013-05-26 11:42:00,54.0,54.0,30.07,North,10,8.0,-999.0,100,-99.99,,,-99.99,,2013-05-26 16:42:00,
2013-05-26 11:53:00,54.0,54.0,29.99,East,90,18.0,28.0,100,-99.99,,,-99.99,,2013-05-26 16:53:00,
2013-05-26 12:02:00,54.0,54.0,29.99,East,90,18.0,28.0,100,-99.99,,,-99.99,,2013-05-26 17:02:00,
2013-05-26 12:11:00,54.0,54.0,29.99,East,90,18.0,28.0,100,-99.99,,,-99.99,,2013-05-26 17:11:00,
2013-05-26 12:22:00,54.0,54.0,29.99,East,90,18.0,28.0,100,-99.99,,,-99.99,,2013-05-26 17:22:00,
2013-05-26 12:32:00,54.0,54.0,30.00,East,90,9.0,-999.0,100,-99.99,,,-99.99,,2013-05-26 17:32:00,
2013-05-26 12:42:00,54.0,54.0,30.00,East,90,9.0,-999.0,100,-99.99,,,-99.99,,2013-05-26 17:42:00,
2013-05-26 12:52:00,54.0,54.0,30.07,North,350,14.0,22.0,100,-99.99,,,-99.99,,2013-05-26 17:52:00,
2013-05-26 13:01:00,54.0,54.0,30.07,North,350,14.0,22.0,100,-99.99,,,-99.99,,2013-05-26 18:01:00,
2013-05-26 13:12:00,54.0,54.0,30.05,ENE,60,6.0,-999.0,100,-99.99,,,-99.99,,2013-05-26 18:12:00,
2013-05-26 13:21:00,54.0,54.0,30.05,ENE,60,6.0,-999.0,100,-99.99,,,-99.99,,2013-05-26 18:21:00,
2013-05-26 13:32:00,54.0,54.0,30.04,NE,40,5.0,-999.0,100,-99.99,,,-99.99,,2013-05-26 18:32:00,
2013-05-26 13:42:00,54.0,54.0,30.04,NE,40,5.0,-999.0,100,-99.99,,,-99.99,,2013-05-26 18:42:00,
2013-05-26 13:52:00,54.0,54.0,30.00,ENE,70,15.0,-999.0,100,-99.99,,,-99.99,,2013-05-26 18:52:00,
2013-05-26 14:01:00,54.0,54.0,30.00,ENE,70,15.0,-999.0,100,-99.99,,,-99.99,,2013-05-26 19:01:00,
2013-05-26 14:11:00,54.0,54.0,30.00,East,90,12.0,-999.0,100,-99.99,,,-99.99,,2013-05-26 19:11:00,
2013-05-26 14:22:00,54.0,54.0,30.00,East,90,12.0,-999.0,100,-99.99,,,-99.99,,2013-05-26 19:22:00,
2013-05-26 14:32:00,54.0,54.0,29.99,ENE,70,14.0,18.0,100,-99.99,,,-99.99,,2013-05-26 19:32:00,
2013-05-26 14:42:00,54.0,54.0,29.99,ENE,70,14.0,18.0,100,-99.99,,,-99.99,,2013-05-26 19:42:00,
2013-05-26 14:52:00,54.0,54.0,29.98,East,100,15.0,21.0,100,-99.99,,,-99.99,,2013-05-26 19:52:00,
2013-05-26 15:02:00,54.0,54.0,29.98,East,100,15.0,21.0,100,-99.99,,,-99.99,,2013-05-26 20:02:00,
2013-05-26 15:11:00,54.0,54.0,29.98,East,100,15.0,21.0,100,-99.99,,,-99.99,,2013-05-26 20:11:00,
2013-05-26 15:22:00,54.0,54.0,29.98,East,100,15.0,21.0,100,-99.99,,,-99.99,,2013-05-26 20:22:00,
2013-05-26 15:32:00,54.0,54.0,29.94,ENE,70,17.0,24.0,100,-99.99,,,-99.99,,2013-05-26 20:32:00,
2013-05-26 15:42:00,54.0,54.0,29.94,ENE,70,17.0,24.0,100,-99.99,,,-99.99,,2013-05-26 20:42:00,
2013-05-26 15:52:00,54.0,54.0,29.97,East,90,10.0,16.0,100,-99.99,,,-99.99,,2013-05-26 20:52:00,
2013-05-26 16:02:00,54.0,54.0,29.97,East,90,10.0,16.0,100,-99.99,,,-99.99,,2013-05-26 21:02:00,
2013-05-26 16:11:00,54.0,54.0,29.96,East,100,12.0,17.0,100,-99.99,,,-99.99,,2013-05-26 21:11:00,
2013-05-26 16:22:00,54.0,54.0,29.96,East,100,12.0,17.0,100,-99.99,,,-99.99,,2013-05-26 21:22:00,
2013-05-26 16:33:00,55.0,55.0,29.95,East,100,12.0,18.0,100,-99.99,,,-99.99,,2013-05-26 21:33:00,
2013-05-26 16:43:00,55.0,55.0,29.95,East,100,12.0,18.0,100,-99.99,,,-99.99,,2013-05-26 21:43:00,
2013-05-26 16:53:00,55.0,55.0,29.95,East,100,10.0,-999.0,100,-99.99,,,-99.99,,2013-05-26 21:53:00,
2013-05-26 17:03:00,55.0,55.0,29.95,East,100,10.0,-999.0,100,-99.99,,,-99.99,,2013-05-26 22:03:00,
2013-05-26 17:12:00,55.0,55.0,29.96,ENE,70,6.0,-999.0,100,-99.99,,,-99.99,,2013-05-26 22:12:00,
2013-05-26 17:23:00,55.0,55.0,29.96,ENE,70,6.0,-999.0,100,-99.99,,,-99.99,,2013-05-26 22:23:00,
2013-05-26 17:33:00,55.0,55.0,29.94,NE,50,8.0,-999.0,100,-99.99,,,-99.99,,2013-05-26 22:33:00,
2013-05-26 17:42:00,55.0,55.0,29.94,NE,50,8.0,-999.0,100,-99.99,,,-99.99,,2013-05-26 22:42:00,
2013-05-26 17:53:00,55.0,55.0,29.96,NE,50,10.0,15.0,100,-99.99,,,-99.99,,2013-05-26 22:53:00,
2013-05-26 18:02:00,55.0,55.0,29.96,NE,50,10.0,15.0,100,-99.99,,,-99.99,,2013-05-26 23:02:00,
2013-05-26 18:11:00,55.0,55.0,29.98,North,10,8.0,-999.0,100,-99.99,,,-99.99,,2013-05-26 23:11:00,
2013-05-26 18:22:00,55.0,55.0,29.98,North,10,8.0,-999.0,100,-99.99,,,-99.99,,2013-05-26 23:22:00,
2013-05-26 18:32:00,55.0,55.0,30.00,NE,40,7.0,-999.0,100,-99.99,,,-99.99,,2013-05-26 23:32:00,
2013-05-26 18:43:00,55.0,55.0,30.00,NE,40,7.0,-999.0,100,-99.99,,,-99.99,,2013-05-26 23:43:00,
2013-05-26 18:51:00,57.0,57.0,30.00,NE,50,6.0,-999.0,100,-99.99,,,-99.99,,2013-05-26 23:51:00,
2013-05-26 19:02:00,57.0,57.0,30.00,NE,50,6.0,-999.0,100,-99.99,,,-99.99,,2013-05-27 00:02:00,
2013-05-26 19:11:00,57.0,57.0,29.99,ENE,60,7.0,-999.0,100,-99.99,,,-99.99,,2013-05-27 00:11:00,
2013-05-26 19:22:00,57.0,57.0,29.99,ENE,60,7.0,-999.0,100,-99.99,,,-99.99,,2013-05-27 00:22:00,
2013-05-26 19:32:00,57.0,57.0,29.99,NNE,30,7.0,-999.0,100,-99.99,,,-99.99,,2013-05-27 00:32:00,
2013-05-26 19:42:00,57.0,57.0,29.99,NNE,30,7.0,-999.0,100,-99.99,,,-99.99,,2013-05-27 00:42:00,
2013-05-26 19:52:00,57.0,57.0,29.96,ENE,70,12.0,-999.0,100,-99.99,,,-99.99,,2013-05-27 00:52:00,
2013-05-26 20:01:00,57.0,57.0,29.96,ENE,70,12.0,-999.0,100,-99.99,,,-99.99,,2013-05-27 01:01:00,
2013-05-26 20:11:00,57.0,57.0,29.96,ENE,70,12.0,-999.0,100,-99.99,,,-99.99,,2013-05-27 01:11:00,
2013-05-26 20:22:00,57.0,57.0,29.96,ENE,70,12.0,-999.0,100,-99.99,,,-99.99,,2013-05-27 01:22:00,
2013-05-26 20:31:00,55.0,55.0,29.95,East,90,16.0,22.0,100,-99.99,,,-99.99,,2013-05-27 01:31:00,
2013-05-26 20:42:00,55.0,55.0,29.95,East,90,16.0,22.0,100,-99.99,,,-99.99,,2013-05-27 01:42:00,
2013-05-26 20:52:00,55.0,55.0,29.95,East,80,13.0,18.0,100,-99.99,,,-99.99,,2013-05-27 01:52:00,
2013-05-26 21:02:00,55.0,55.0,29.95,East,80,13.0,18.0,100,-99.99,,,-99.99,,2013-05-27 02:02:00,
2013-05-26 21:11:00,55.0,55.0,29.94,East,90,13.0,21.0,100,-99.99,,,-99.99,,2013-05-27 02:11:00,
2013-05-26 21:22:00,55.0,55.0,29.94,East,90,13.0,21.0,100,-99.99,,,-99.99,,2013-05-27 02:22:00,
2013-05-26 21:32:00,55.0,55.0,29.92,East,100,17.0,23.0,100,-99.99,,,-99.99,,2013-05-27 02:32:00,
2013-05-26 21:42:00,55.0,55.0,29.92,East,100,17.0,23.0,100,-99.99,,,-99.99,,2013-05-27 02:42:00,
2013-05-26 21:52:00,54.0,54.0,29.91,ENE,60,15.0,24.0,100,-99.99,,,-99.99,,2013-05-27 02:52:00,
2013-05-26 22:02:00,54.0,54.0,29.91,ENE,60,15.0,24.0,100,-99.99,,,-99.99,,2013-05-27 03:02:00,
2013-05-26 22:11:00,54.0,54.0,29.88,East,80,16.0,23.0,100,-99.99,,,-99.99,,2013-05-27 03:11:00,
2013-05-26 22:21:00,54.0,54.0,29.88,East,80,16.0,23.0,100,-99.99,,,-99.99,,2013-05-27 03:21:00,
2013-05-26 22:33:00,54.0,54.0,29.91,East,80,17.0,22.0,100,-99.99,,,-99.99,,2013-05-27 03:33:00,
2013-05-26 22:43:00,54.0,54.0,29.91,East,80,17.0,22.0,100,-99.99,,,-99.99,,2013-05-27 03:43:00,
2013-05-26 22:53:00,54.0,54.0,29.93,East,80,12.0,21.0,100,-99.99,,,-99.99,,2013-05-27 03:53:00,
2013-05-26 23:02:00,54.0,54.0,29.93,East,80,12.0,21.0,100,-99.99,,,-99.99,,2013-05-27 04:02:00,
2013-05-26 23:12:00,54.0,54.0,29.95,East,80,13.0,-999.0,100,-99.99,,,-99.99,,2013-05-27 04:12:00,
2013-05-26 23:23:00,54.0,54.0,29.95,East,80,13.0,-999.0,100,-99.99,,,-99.99,,2013-05-27 04:23:00,
2013-05-26 23:33:00,54.0,54.0,29.94,ENE,60,10.0,15.0,100,-99.99,,,-99.99,,2013-05-27 04:33:00,
2013-05-26 23:43:00,54.0,54.0,29.94,ENE,60,10.0,15.0,100,-99.99,,,-99.99,,2013-05-27 04:43:00,
2013-05-26 23:52:00,54.0,54.0,29.92,NE,50,9.0,-999.0,100,-99.99,,,-99.99,,2013-05-27 04:52:00,